| time (UTC) | temp F | wind direction | speed MPH | gust MPH | rain 1hr in | rain 24hr in | rain mn in | humidity % | barometer mb |
| 20260504213622 | 61 | 87 | 2.0 | 5.0 | 0.00 | 0.07 | 0.07 | 91 | 1011.4 |
| 20260504212701 | 61 | 89 | 3.0 | 4.0 | 0.00 | 0.07 | 0.07 | 91 | 1011.7 |
| 20260504211801 | 61 | 102 | 2.0 | 4.0 | 0.00 | 0.07 | 0.07 | 91 | 1011.7 |
| 20260504210922 | 62 | 96 | 2.0 | 4.0 | 0.00 | 0.07 | 0.07 | 91 | 1011.6 |
| 20260504210001 | 62 | 63 | 2.0 | 3.0 | 0.00 | 0.07 | 0.07 | 91 | 1011.4 |
| 20260504205401 | 62 | 57 | 1.0 | 2.0 | 0.00 | 0.07 | 0.07 | 91 | 1011.5 |
| 20260504204522 | 62 | 72 | 1.0 | 3.0 | 0.00 | 0.07 | 0.07 | 91 | 1011.4 |
| 20260504203601 | 62 | 113 | 1.0 | 4.0 | 0.00 | 0.07 | 0.07 | 90 | 1011.5 |
| 20260504202701 | 62 | 138 | 1.0 | 4.0 | 0.00 | 0.07 | 0.07 | 90 | 1011.1 |
| 20260504201801 | 62 | 310 | 1.0 | 3.0 | 0.00 | 0.07 | 0.07 | 91 | 1011.1 |
| 20260504200901 | 62 | 97 | 1.0 | 4.0 | 0.00 | 0.07 | 0.07 | 91 | 1011.1 |
| 20260504200001 | 62 | 122 | 2.0 | 6.0 | 0.00 | 0.07 | 0.07 | 91 | 1010.7 |
| 20260504195401 | 62 | 160 | 3.0 | 6.0 | 0.00 | 0.07 | 0.07 | 90 | 1010.6 |
| 20260504194501 | 62 | 152 | 2.0 | 6.0 | 0.00 | 0.07 | 0.07 | 91 | 1010.7 |
| 20260504193601 | 62 | 130 | 2.0 | 4.0 | 0.00 | 0.07 | 0.07 | 91 | 1010.4 |
| 20260504192701 | 62 | 144 | 1.0 | 4.0 | 0.01 | 0.07 | 0.07 | 91 | 1010.2 |
| 20260504191801 | 62 | 153 | 2.0 | 4.0 | 0.02 | 0.07 | 0.07 | 91 | 1010.1 |
| 20260504190902 | 62 | 140 | 2.0 | 5.0 | 0.02 | 0.07 | 0.07 | 90 | 1009.7 |
| 20260504190023 | 62 | 148 | 2.0 | 4.0 | 0.03 | 0.07 | 0.07 | 90 | 1010.0 |
| 20260504185401 | 63 | 159 | 2.0 | 5.0 | 0.03 | 0.07 | 0.07 | 90 | 1009.7 |
| 20260504184501 | 63 | 170 | 1.0 | 4.0 | 0.04 | 0.07 | 0.07 | 89 | 1009.9 |
| 20260504183602 | 63 | 142 | 1.0 | 5.0 | 0.04 | 0.06 | 0.06 | 89 | 1009.9 |
| 20260504182702 | 63 | 130 | 3.0 | 6.0 | 0.04 | 0.06 | 0.06 | 89 | 1009.8 |
| 20260504181802 | 63 | 121 | 1.0 | 5.0 | 0.04 | 0.05 | 0.05 | 88 | 1009.7 |
| 20260504180901 | 64 | 164 | 1.0 | 5.0 | 0.04 | 0.05 | 0.05 | 87 | 1009.7 |
| 20260504180002 | 64 | 162 | 2.0 | 7.0 | 0.03 | 0.04 | 0.04 | 87 | 1009.7 |
| 20260504175402 | 64 | 165 | 3.0 | 7.0 | 0.03 | 0.04 | 0.04 | 87 | 1010.0 |
| 20260504174523 | 64 | 149 | 3.0 | 9.0 | 0.02 | 0.03 | 0.03 | 86 | 1010.0 |
| 20260504173602 | 64 | 158 | 3.0 | 7.0 | 0.01 | 0.02 | 0.02 | 85 | 1010.1 |
| 20260504172701 | 65 | 160 | 3.0 | 6.0 | 0.01 | 0.02 | 0.02 | 85 | 1009.9 |
| 20260504171802 | 65 | 149 | 3.0 | 9.0 | 0.01 | 0.02 | 0.02 | 83 | 1010.0 |
| 20260504170902 | 66 | 163 | 5.0 | 9.0 | 0.00 | 0.01 | 0.01 | 78 | 1010.1 |
| 20260504150902 | 67 | 151 | 4.0 | 15.0 | 0.00 | 0.00 | 0.00 | 76 | 1010.5 |
| 20260504140923 | 70 | 167 | 7.0 | 17.0 | 0.00 | 0.00 | 0.00 | 69 | 1010.3 |
| 20260504081802 | 69 | 161 | 3.0 | 9.0 | 0.00 | 0.00 | 0.00 | 62 | 1011.7 |
| 20260504080923 | 68 | 183 | 3.0 | 8.0 | 0.00 | 0.00 | 0.00 | 63 | 1011.8 |
| 20260504050003 | 59 | 132 | 3.0 | 6.0 | 0.00 | 0.00 | 0.00 | 91 | 1012.2 |
| 20260504045403 | 59 | 150 | 2.0 | 5.0 | 0.00 | 0.00 | 0.00 | 91 | 1012.2 |
| 20260504044502 | 59 | 116 | 2.0 | 5.0 | 0.00 | 0.00 | 0.00 | 91 | 1011.9 |
| 20260504043623 | 59 | 79 | 2.0 | 5.0 | 0.00 | 0.00 | 0.00 | 91 | 1012.1 |
| 20260504042703 | 59 | 122 | 2.0 | 5.0 | 0.00 | 0.00 | 0.00 | 91 | 1012.3 |
| 20260504041803 | 59 | 166 | 2.0 | 4.0 | 0.00 | 0.00 | 0.00 | 91 | 1012.3 |
| 20260504040903 | 59 | 137 | 2.0 | 5.0 | 0.00 | 0.00 | 0.00 | 90 | 1012.5 |
| 20260504040003 | 59 | 138 | 2.0 | 5.0 | 0.00 | 0.00 | 0.00 | 90 | 1012.3 |
| 20260504035403 | 59 | 74 | 2.0 | 5.0 | 0.00 | 0.00 | 0.00 | 90 | 1012.5 |
| 20260504034524 | 59 | 175 | 1.0 | 4.0 | 0.00 | 0.00 | 0.00 | 90 | 1012.6 |
| 20260504033603 | 59 | 169 | 2.0 | 4.0 | 0.00 | 0.00 | 0.00 | 90 | 1012.6 |
| 20260504032703 | 59 | 145 | 1.0 | 4.0 | 0.00 | 0.00 | 0.00 | 90 | 1012.6 |
| 20260504031803 | 59 | 37 | 2.0 | 6.0 | 0.00 | 0.00 | 0.00 | 90 | 1012.8 |
| 20260504030924 | 59 | 125 | 1.0 | 4.0 | 0.00 | 0.00 | 0.00 | 90 | 1012.8 |
| 20260504030003 | 60 | 148 | 2.0 | 5.0 | 0.00 | 0.00 | 0.00 | 90 | 1013.0 |
| 20260504025403 | 60 | 156 | 2.0 | 5.0 | 0.00 | 0.00 | 0.00 | 90 | 1012.9 |
| 20260504024503 | 60 | 147 | 2.0 | 5.0 | 0.00 | 0.00 | 0.00 | 90 | 1012.7 |
| 20260504023603 | 60 | 144 | 2.0 | 6.0 | 0.00 | 0.00 | 0.00 | 90 | 1013.0 |
| 20260504022703 | 60 | 95 | 2.0 | 5.0 | 0.00 | 0.00 | 0.00 | 90 | 1012.9 |
| 20260504021803 | 60 | 31 | 2.0 | 6.0 | 0.00 | 0.00 | 0.00 | 90 | 1013.2 |
| 20260504020924 | 60 | 153 | 1.0 | 5.0 | 0.00 | 0.00 | 0.00 | 90 | 1013.1 |
| 20260504020003 | 60 | 133 | 2.0 | 5.0 | 0.00 | 0.00 | 0.00 | 91 | 1013.3 |
| 20260504015403 | 60 | 157 | 2.0 | 5.0 | 0.00 | 0.00 | 0.00 | 91 | 1013.3 |
| 20260504014503 | 60 | 127 | 2.0 | 5.0 | 0.00 | 0.00 | 0.00 | 91 | 1013.1 |
| 20260504013603 | 60 | 138 | 2.0 | 5.0 | 0.00 | 0.00 | 0.00 | 91 | 1013.0 |
| 20260504012703 | 60 | 168 | 2.0 | 6.0 | 0.00 | 0.00 | 0.00 | 91 | 1013.3 |
| 20260504011803 | 60 | 30 | 2.0 | 5.0 | 0.00 | 0.00 | 0.00 | 91 | 1013.3 |
| 20260504010903 | 60 | 123 | 1.0 | 4.0 | 0.00 | 0.00 | 0.00 | 91 | 1013.4 |
| 20260504010003 | 60 | 133 | 1.0 | 3.0 | 0.00 | 0.00 | 0.00 | 91 | 1013.3 |
| 20260504005424 | 60 | 162 | 0.0 | 2.0 | 0.00 | 0.00 | 0.00 | 92 | 1013.3 |
| 20260504004524 | 60 | 147 | 0.0 | 3.0 | 0.00 | 0.00 | 0.00 | 92 | 1013.2 |
| 20260504003624 | 60 | 137 | 1.0 | 4.0 | 0.00 | 0.00 | 0.00 | 92 | 1013.3 |
| 20260504002703 | 60 | 148 | 1.0 | 3.0 | 0.00 | 0.00 | 0.00 | 91 | 1013.6 |
| 20260504001803 | 60 | 195 | 1.0 | 3.0 | 0.00 | 0.00 | 0.00 | 91 | 1013.5 |
| 20260504000924 | 60 | 152 | 1.0 | 2.0 | 0.00 | 0.00 | 0.00 | 91 | 1013.5 |
| 20260504000003 | 60 | 192 | 1.0 | 3.0 | 0.00 | 0.00 | 0.00 | 91 | 1013.6 |
| 20260503235403 | 60 | 124 | 1.0 | 3.0 | 0.00 | 0.00 | 0.00 | 91 | 1014.0 |
| 20260503234503 | 60 | 175 | 1.0 | 4.0 | 0.00 | 0.00 | 0.00 | 91 | 1013.9 |
| 20260503233603 | 60 | 138 | 2.0 | 4.0 | 0.00 | 0.00 | 0.00 | 91 | 1013.9 |
| 20260503232703 | 60 | 109 | 1.0 | 4.0 | 0.00 | 0.00 | 0.00 | 91 | 1014.1 |
| 20260503231803 | 60 | 113 | 2.0 | 4.0 | 0.00 | 0.00 | 0.00 | 91 | 1014.0 |
| 20260503230924 | 60 | 101 | 2.0 | 5.0 | 0.00 | 0.00 | 0.00 | 91 | 1014.1 |
| 20260503230003 | 60 | 103 | 2.0 | 4.0 | 0.00 | 0.00 | 0.00 | 91 | 1014.3 |
| 20260503225403 | 60 | 122 | 1.0 | 3.0 | 0.00 | 0.00 | 0.00 | 91 | 1014.4 |
| 20260503224524 | 60 | 140 | 1.0 | 3.0 | 0.00 | 0.00 | 0.00 | 91 | 1014.5 |
| 20260503223603 | 60 | 131 | 1.0 | 3.0 | 0.00 | 0.00 | 0.00 | 91 | 1014.6 |
| 20260503222703 | 60 | 130 | 1.0 | 4.0 | 0.00 | 0.00 | 0.00 | 90 | 1014.5 |
| 20260503221803 | 60 | 133 | 2.0 | 4.0 | 0.00 | 0.00 | 0.00 | 90 | 1014.7 |
| 20260503220903 | 60 | 119 | 2.0 | 4.0 | 0.00 | 0.00 | 0.00 | 89 | 1014.7 |
| 20260503220004 | 60 | 109 | 2.0 | 4.0 | 0.00 | 0.00 | 0.00 | 88 | 1014.9 |
| 20260503215403 | 61 | 111 | 2.0 | 4.0 | 0.00 | 0.00 | 0.00 | 87 | 1014.8 |
| 20260503214503 | 61 | 88 | 2.0 | 3.0 | 0.00 | 0.00 | 0.00 | 86 | 1015.0 |